Regional Weather Roundup
Issued by NWS

Home | Current Version | Previous Version | Graphics & Text | Print | Product List | Glossary On
Versions: 1 2 3 4 5 6 7 8 9 10 11 12 13 14 15 16 17 18 19 20 21 22 23 24 25 26 27
000
ASUS45 KBOU 240406
RWRCO

WEATHER ROUNDUP FOR COLORADO
NATIONAL WEATHER SERVICE DENVER/BOULDER CO
1000 PM MDT WED APR 23 2014

NOTE: "FAIR" INDICATES FEW OR NO CLOUDS BELOW 12000 FEET WITH NO
SIGNIFICANT WEATHER AND/OR OBSTRUCTIONS TO VISIBILITY.

COZ001>005-013-030-031-240500-
...NORTHWEST COLORADO...

CITY           SKY/WX    TMP DP  RH WIND       PRES   REMARKS
CRAIG          CLEAR     32  15  49 W7        30.04R WCI  26
HAYDEN         CLEAR     34  16  47 W8        30.05R WCI  27
MEEKER         CLEAR     38  13  35 CALM      30.03R
MOUNT WERNER   CLOUDY    23  10  58 W15G21    30.05R WCI  10
STEAMBOAT SPGS CLEAR     35  10  35 S3        30.02R
WALDEN         MOCLDY    30   9  40 W17       29.99R WCI  18
$$

COZ006>008-011-240500-
...WEST CENTRAL VALLEYS...

CITY           SKY/WX    TMP DP  RH WIND       PRES   REMARKS
GRAND JUNCTION CLEAR     41  10  28 NW8       29.98R
MONTROSE       CLEAR     46  10  23 W5        30.01R
EAGLE          PTCLDY    43  16  33 NW3       30.02R
RIFLE          PTCLDY    46  13  26 NW8       30.00R
DELTA          NOT AVBL
NUCLA          NOT AVBL
$$

COZ017>023-064>068-240500-
...SOUTHWEST COLORADO...

CITY           SKY/WX    TMP DP  RH WIND       PRES   REMARKS
DURANGO        CLEAR     45  14  28 W8        29.97R
CORTEZ         CLEAR     41  14  33 N7        30.03R
PAGOSA SPRINGS CLEAR     36  12  36 CALM      29.97S
TELLURIDE      PTCLDY    34  12  40 W7        30.07R WCI  28
WOLF CREEK PAS CLEAR     21  10  63 SW16G25   30.04S WCI   7
$$

COZ009-010-012-014-032>034-037-058>063-240500-
...CENTRAL COLORADO...

CITY           SKY/WX    TMP DP  RH WIND       PRES   REMARKS
ASPEN          CLOUDY    40  14  34 NW9       30.00R
BUENA VISTA    MOCLDY    40  15  35 W15       29.92R
COPPER MTN     LGT SNOW  23  18  80 W21G28    30.02R WCI   8
BERTHOUD PASS  CLOUDY    14   5  67 MISG      29.95R
COTTONWOOD PAS MOCLDY    34  18  51 NW12G28   29.95R WCI  25
GUNNISON       PTCLDY    39   9  28 W8        30.01R
KREMMLING      PTCLDY    36   9  32 NW8       30.02R
LEADVILLE      CLOUDY    27  17  66 NW17      29.98R WCI  14
MONARCH PASS   LGT SNOW  21  18  86 W41G52    30.07F WCI   0
SALIDA         MOCLDY    43  19  38 W15       29.98R
SUNLIGHT       PTCLDY    27  14  59 W5        30.06R WCI  21
WILKERSON PASS CLOUDY    28  16  59 NW10G17   29.99R WCI  19
$$

COZ069>075-240500-
...SAN LUIS VALLEY/SANGRE DE CRISTO MOUNTAINS...

CITY           SKY/WX    TMP DP  RH WIND       PRES   REMARKS
ALAMOSA        MOCLDY    41  25  53 N15       29.93R
LA VETA PASS   MOCLDY    32  21  64 W6G33     29.92R WCI  26
SAGUACHE       PTCLDY    41  18  38 NW15      29.94R
$$

COZ035-036-038>040-240500-
...NORTHERN COLORADO FRONT RANGE...

CITY           SKY/WX    TMP DP  RH WIND       PRES   REMARKS
DENVER INTL AP CLOUDY    44  41  89 E10       29.88R
DMNS CITY PARK   N/A     42  38  86 N3G12     29.89F
AURORA         LGT RAIN  41  39  93 CALM      29.91R
FRONT RANGE AP NOT AVBL
ERIE MUNI ARPT RAIN      45  41  85 SE12      29.87R
BOULDER MUN AP DRIZZLE   45  41  87 SE10G17   29.86R
CENTENNIAL     LGT RAIN  40  36  86 E9        29.90R FOG
BROOMFIELD     MOCLDY    45  39  81 SE9       29.88R
FORT COLLINS   CLOUDY    46  36  66 S3        29.89R
LONGMONT       NOT AVBL
$$

COZ041-046-047-076>085-087-088-240500-
...PIKES PEAK/PALMER DIVIDE AND SOUTHERN FOOTHILLS...

CITY           SKY/WX    TMP DP  RH WIND       PRES   REMARKS
COLO. SPRINGS  CLOUDY    42  33  70 N25G36    29.85R
A. F. ACADEMY  CLOUDY    38  35  92 N14       29.88R
ELLICOTT       NOT AVBL
FALCON         CLOUDY    36  33  90 N22G29    29.89R
FORT CARSON    CLOUDY    43  34  70 N16G25    29.85R
LIMON          CLOUDY    38  34  85 N35G47    29.86R
MONUMENT HILL  LGT SNOW  32  32 100 N10       29.89R WCI  24
TRINIDAD       CLOUDY    53  28  38 NW13      29.79R
$$

COZ042>045-048>051-090-091-240500-
...NORTHEAST COLORADO...

CITY           SKY/WX    TMP DP  RH WIND       PRES   REMARKS
GREELEY ARPT   CLOUDY    54  16  22 N20       29.87R
AKRON          LGT RAIN  44  31  60 NW24G41   29.87R
BURLINGTON     MOCLDY    47  32  56 N35G44    29.79R
WRAY           CLOUDY    52  30  42 NW29G41   29.78R
STERLING       NOT AVBL
HOLYOKE        NOT AVBL
FORT MORGAN    NOT AVBL
$$

COZ086-089-092>099-240500-
...SOUTHEAST COLORADO...

CITY           SKY/WX    TMP DP  RH WIND       PRES   REMARKS
PUEBLO         CLOUDY    51  36  56 N30G39    29.82R
LA JUNTA       CLOUDY    52  37  56 N31G45    29.77R HAZE
LAMAR          HAZE      55  34  45 N40G53    29.71R VSB 1
SPRINGFIELD      N/A     64  25  22 N20G25    29.68R
$$



USA.gov is the U.S. government's official web portal to all federal, state and local government web resources and services.